Flag for Germany Weather past 2 weeks in Schloss Holte-Stukenbrock, North Rhine-Westphalia, Germany

Now
38 °F

Overcast.


Feels Like: 36 °F
Forecast: 32 / 44 °F
Wind: 3 mph from West

Location: Bad Lippspringe

Current Time: Mar 4, 2015 at 6:24:03 PM

Latest Report: Mar 4, 2015 at 6:00 PM


Visibility: 25 mi

Pressure: 30.26 "Hg

Humidity: 82%

Dew point: 33 °F

Location of Schloss Holte-StukenbrockLocation

Historic Weather in Schloss Holte-Stukenbrock — Graph

°F

Schloss Holte-Stukenbrock temperature yesterday

Maximum temperature yesterday: 45 °F (at 4:00 PM)
Minimum temperature yesterday: 34 °F (at 9:00 PM)
Average temperature yesterday: 38 °F

Past Weeks' High & Low Weather Summary

 TemperatureHumidityPressure
High51 °F (Mar 1, 3:00 PM)100% (Feb 17, 6:00 PM)30.78 "Hg (Feb 17, 6:00 PM)
Low26 °F (Feb 19, 5:00 AM)44% (Feb 28, 3:00 PM)29.32 "Hg (Feb 21, 7:00 AM)
Average39 °F80%29.93 "Hg
* Reported Feb 17 5:00 PM — Mar 4 5:00 PM, Schloss Holte-Stukenbrock, Weather by CustomWeather, © 2015

Note: Actual official high and low records may vary slightly from our data, if they occured in-between our weather recording intervals... More about our weather records

Advertising

Schloss Holte-Stukenbrock weather history for previous 24 hours

 ConditionsComfort  
Time TempWeatherWind HumidityBarometerVisibility
5:00 PM
Wed, Mar 4
42 °FOvercast.8 mph66%30.23 "Hg34 mi
4:00 PM41 °FOvercast.7 mph75%30.23 "Hg19 mi
3:00 PM41 °FOvercast.7 mph76%30.22 "Hg17 mi
2:00 PM40 °FOvercast.6 mph79%30.22 "Hg17 mi
1:00 PM39 °FOvercast.8 mph79%30.23 "Hg16 mi
12:00 PM38 °FOvercast.8 mph80%30.22 "Hg19 mi
11:00 AM39 °FOvercast.7 mph82%30.20 "Hg16 mi
10:00 AM38 °FOvercast.7 mph84%30.19 "Hg16 mi
9:00 AM36 °FLight rain. Overcast.6 mph86%30.18 "Hg14 mi
8:00 AM35 °FScattered clouds.5 mph88%30.16 "Hg11 mi
7:00 AM35 °FClear.5 mph89%30.15 "Hg9 mi
6:00 AM34 °FClear.3 mph91%30.13 "Hg7 mi
5:00 AM35 °FPassing clouds.3 mph92%30.12 "Hg6 mi
4:00 AM34 °FLow clouds.2 mph96%30.12 "Hg7 mi
3:00 AM33 °FLow clouds.1 mph98%30.11 "Hg7 mi
2:00 AM33 °FLight snow. Low clouds.1 mph98%30.09 "Hg7 mi
1:00 AM36 °FOvercast.5 mph85%30.06 "Hg15 mi
12:00 AM36 °FFog.1 mph95%30.06 "Hg4 mi
11:00 PM
Tue, Mar 3
36 °FOvercast.2 mph95%30.05 "Hg7 mi
10:00 PM34 °FOvercast.1 mph97%30.03 "Hg14 mi
9:00 PM34 °FFreezing rain. Low clouds.6 mph95%30.02 "Hg4 mi
8:00 PM39 °FOvercast.7 mph86%29.98 "Hg37 mi
7:00 PM40 °FOvercast.7 mph90%29.97 "Hg25 mi
6:00 PM40 °FLight rain. Overcast.7 mph90%29.96 "Hg9 mi
Weather by CustomWeather, © 2015

See weather overviewHow to use our weather pages